Change the Weather History Date:

Saturday, March 15, 2014

  Actual Average Record
Temperature  
Mean Temperature 48 °F -  
Max Temperature 65 °F 59 °F 80 °F (1977)
Min Temperature 32 °F 34 °F 19 °F (1932)
Degree Days  
Heating Degree Days 16    
Moisture  
Dew Point 31 °F    
Average Humidity 53    
Maximum Humidity 100    
Minimum Humidity 22    
Precipitation  
Precipitation 0.00 in - - ()
Sea Level Pressure  
Sea Level Pressure 30.04 in    
Wind  
Wind Speed 5 mph (SSE)    
Max Wind Speed 9 mph    
Max Gust Speed -    
Visibility 10 miles    
Events      
Averages and records for this station are not official NWS values.
T = Trace of Precipitation, MM = Missing Value Source: NWS Daily Summary

Daily Weather History Graph

Daily Weather History Graph

Search for Another Location

Airport or City:

Trip Planner

Search our weather history database for the weather conditions in past years. The results will help you decide how hot, cold, wet, or windy it might be!

Date:

Astronomy

Mar. 15, 2014 Rise Set
Actual Time 6:59 AM CDT 6:55 PM CDT
Civil Twilight 6:33 AM CDT 7:22 PM CDT
Nautical Twilight 6:03 AM CDT 7:52 PM CDT
Astronomical Twilight 5:32 AM CDT 8:23 PM CDT
Moon 6:14 PM CDT (3/15) 6:10 AM CDT (3/15)
Length of Visible Light 12h 48m
Length of Day
11h 56m
Waxing Gibbous, 99% of the Moon is Illuminated
Mar 15
Waxing Gibbous
Mar 16
Full
Mar 23
Last Quarter
Mar 30
New
Apr 7
First Quarter

Hourly Weather History & Observations

Time (CDT) Temp. Windchill Dew Point Humidity Pressure Visibility Wind Dir Wind Speed Gust Speed Precip Events Conditions
12:56 AM 45.0 °F 40.6 °F 36.0 °F 71% 30.01 in 10.0 mi WSW 8.1 mph - N/A   Clear
1:56 AM 43.9 °F 39.9 °F 36.9 °F 76% 30.03 in 10.0 mi NW 6.9 mph - N/A   Clear
2:56 AM 41.0 °F 38.0 °F 36.0 °F 82% 30.04 in 10.0 mi West 4.6 mph - N/A   Clear
3:56 AM 41.9 °F - 36.9 °F 82% 30.04 in 10.0 mi Calm Calm - N/A   Clear
4:56 AM 39.9 °F - 37.9 °F 93% 30.05 in 10.0 mi Calm Calm - N/A   Clear
5:56 AM 32.9 °F - 32.9 °F 100% 30.06 in 10.0 mi Calm Calm - N/A   Clear
6:56 AM 34.0 °F - 34.0 °F 100% 30.07 in 10.0 mi Calm Calm - N/A   Clear
7:56 AM 37.9 °F 31.5 °F 37.9 °F 100% 30.09 in 10.0 mi South 9.2 mph - N/A   Clear
8:56 AM 45.9 °F 41.2 °F 41.9 °F 86% 30.11 in 10.0 mi South 9.2 mph - N/A   Clear
9:56 AM 52.9 °F - 37.9 °F 57% 30.12 in 10.0 mi South 9.2 mph - N/A   Clear
10:56 AM 56.8 °F - 32.9 °F 40% 30.12 in 10.0 mi South 9.2 mph - N/A   Clear
11:56 AM 59.0 °F - 27.1 °F 30% 30.12 in 10.0 mi SSE 8.1 mph - N/A   Clear
12:56 PM 61.0 °F - 27.1 °F 28% 30.09 in 10.0 mi South 8.1 mph - N/A   Clear
1:56 PM 63.0 °F - 25.2 °F 24% 30.06 in 10.0 mi South 8.1 mph - N/A   Clear
2:56 PM 64.9 °F - 27.1 °F 24% 30.04 in 10.0 mi ESE 8.1 mph - N/A   Clear
3:56 PM 64.9 °F - 25.2 °F 22% 30.01 in 10.0 mi Calm Calm - N/A   Clear
4:56 PM 65.8 °F - 27.1 °F 23% 29.99 in 10.0 mi South 5.8 mph - N/A   Clear
5:56 PM 64.9 °F - 28.0 °F 25% 29.98 in 10.0 mi SE 3.5 mph - N/A   Clear
6:56 PM 61.0 °F - 28.0 °F 29% 29.99 in 10.0 mi Calm Calm - N/A   Clear
7:56 PM 59.0 °F - 26.1 °F 28% 29.98 in 10.0 mi Calm Calm - N/A   Clear
8:56 PM 55.9 °F - 26.1 °F 32% 29.98 in 10.0 mi East 4.6 mph - N/A   Clear
9:56 PM 52.0 °F - 28.0 °F 40% 29.98 in 10.0 mi Calm Calm - N/A   Clear
10:56 PM 52.0 °F - 29.1 °F 41% 29.98 in 10.0 mi Calm Calm - N/A   Clear
11:56 PM 54.0 °F - 28.0 °F 37% 29.96 in 10.0 mi East 8.1 mph - N/A   Overcast